LEGION 4

Last updated on Wed Jul 09 2025 00:02:29 GMT+0000 (Coordinated Universal Time)

1 60453U 24146B 25189.38346313 .00002811 00000+0 15760-3 0 9994 2 60453 45.0362 165.0070 0009418 77.5422 282.6510 15.15949368 48702
UTC large
Height (km)
Speed (km/s)
/
Latitude / Longitude
Inclination (degrees)
Orbital Period (minutes)
Azimuth
Elevation
Range (km)
Doppler Factor

Next 0 passes for location: London (51.5072 / 0.1276)

Sorry there are no passes over London.